Weather History for Billings, MT

Change the Weather History Date:

Thursday, November 21, 2013

  Actual Average Record
Temperature  
Mean Temperature 9 °F 33 °F  
Max Temperature 20 °F 42 °F 65 °F (1954)
Min Temperature -2 °F 24 °F -18 °F (1977)
Degree Days  
Heating Degree Days 56 32  
Month to date heating degree days 591 571  
Since 1 July heating degree days 1328 1323  
Cooling Degree Days 0 0  
Month to date cooling degree days 0 0  
Year to date cooling degree days 840 636  
Moisture  
Dew Point 4 °F    
Average Humidity 78    
Maximum Humidity 95    
Minimum Humidity 61    
Precipitation  
Precipitation 0.00 in 0.02 in 0.18 in (1941)
Month to date precipitation 0.34 0.46  
Year to date precipitation 14.72 12.99  
Snow  
Snow 0.00 in 0.30 in 1.90 in (1970)
Month to date snowfall 6.0 4.3  
Since 1 July snowfall 11.1 9.5  
Since 1 September snowfall 11.1 9.5  
Snow Depth 3.00 in    
Sea Level Pressure  
Sea Level Pressure 30.64 in    
Wind  
Wind Speed 14 mph (WSW)    
Max Wind Speed 32 mph    
Max Gust Speed 40 mph    
Visibility 10 miles    
Events Snow    
T = Trace of Precipitation, MM = Missing Value Source: NWS Daily Summary

Daily Weather History Graph

Daily Weather History Graph

Search for Another Location

Airport:

Trip Planner

Search our weather history database for the weather conditions in past years. The results will help you decide how hot, cold, wet, or windy it might be!

Date:

Astronomy

Nov. 21, 2013 Rise Set
Actual Time 7:22 AM MST 4:37 PM MST
Civil Twilight 6:49 AM MST 5:10 PM MST
Nautical Twilight 6:13 AM MST 5:46 PM MST
Astronomical Twilight 5:37 AM MST 6:22 PM MST
Moon 8:18 PM MST (11/21) 10:29 AM MST (11/21)
Length of Visible Light 10h 20m
Length of Day
9h 14m
Waning Gibbous, 85% of the Moon is Illuminated
Nov 21
Waning Gibbous
Nov 25
Last Quarter
Dec 2
New
Dec 9
First Quarter
Dec 17
Full

Hourly Weather History & Observations

Time (MST) Temp. Windchill Dew Point Humidity Pressure Visibility Wind Dir Wind Speed Gust Speed Precip Events Conditions
12:53 AM 6.1 °F - 1.9 °F 83% 30.56 in 10.0 mi Calm Calm - N/A   Clear
1:53 AM 5.0 °F -2.1 °F 1.0 °F 84% 30.56 in 10.0 mi NNE 3.5 mph - N/A   Clear
2:53 AM 1.9 °F - -0.9 °F 88% 30.58 in 10.0 mi Calm Calm - N/A   Clear
3:53 AM 1.9 °F - -2.0 °F 83% 30.58 in 10.0 mi Calm Calm - N/A   Clear
4:53 AM -0.9 °F -12.7 °F -5.1 °F 83% 30.62 in 10.0 mi NW 5.8 mph - N/A   Clear
5:53 AM 1.0 °F - -2.9 °F 83% 30.63 in 10.0 mi Calm Calm - N/A   Clear
6:53 AM 1.9 °F - -2.0 °F 83% 30.65 in 10.0 mi Calm Calm - N/A   Clear
7:53 AM 1.9 °F -13.8 °F -0.9 °F 88% 30.69 in 10.0 mi SW 10.4 mph - N/A   Partly Cloudy
8:53 AM -0.0 °F -17.1 °F -2.9 °F 88% 30.71 in 10.0 mi SSW 11.5 mph - N/A   Partly Cloudy
9:53 AM 5.0 °F -14.7 °F 1.0 °F 84% 30.71 in 10.0 mi SW 18.4 mph - N/A   Clear
10:53 AM 7.0 °F -12.6 °F 1.9 °F 80% 30.70 in 10.0 mi SW 19.6 mph - N/A   Clear
11:53 AM 10.9 °F -7.0 °F 5.0 °F 77% 30.68 in 10.0 mi SW 18.4 mph - N/A   Clear
12:53 PM 14.0 °F -2.5 °F 6.1 °F 71% 30.66 in 10.0 mi WSW 17.3 mph - N/A   Clear
1:53 PM 17.1 °F 1.5 °F 7.0 °F 65% 30.65 in 10.0 mi SW 17.3 mph - N/A   Clear
2:53 PM 19.0 °F 5.6 °F 8.1 °F 62% 30.65 in 10.0 mi SW 13.8 mph - N/A   Clear
3:53 PM 19.9 °F 6.2 °F 9.0 °F 62% 30.66 in 10.0 mi SW 15.0 mph - N/A   Clear
4:53 PM 19.9 °F 5.7 °F 8.1 °F 60% 30.65 in 10.0 mi WSW 16.1 mph - N/A   Clear
5:53 PM 18.0 °F 2.6 °F 9.0 °F 68% 30.65 in 10.0 mi WSW 17.3 mph - N/A   Clear
6:53 PM 18.0 °F 0.9 °F 7.0 °F 62% 30.64 in 10.0 mi WSW 21.9 mph - N/A   Clear
7:53 PM 17.1 °F -0.6 °F 7.0 °F 65% 30.65 in 10.0 mi WSW 23.0 mph - N/A Snow Blowing Snow
8:53 PM 17.1 °F -1.0 °F 8.1 °F 68% 30.65 in 10.0 mi WSW 24.2 mph 33.4 mph N/A Snow Blowing Snow
9:53 PM 16.0 °F -4.4 °F 8.1 °F 71% 30.63 in 10.0 mi WSW 31.1 mph 39.1 mph N/A Snow Blowing Snow
10:53 PM 17.1 °F -2.0 °F 8.1 °F 68% 30.63 in 10.0 mi WSW 27.6 mph 35.7 mph N/A Snow Blowing Snow
11:53 PM 17.1 °F -2.4 °F 8.1 °F 68% 30.61 in 10.0 mi WSW 28.8 mph 33.4 mph N/A   Clear